Weather in Belyy Kolodez

Russia / Belgorod Oblast     50°00′42″N   38°40′50″E
temp.,
°C
wind,
m/s
gust,
m/s
humid.,
%
clouds,
%
prec.,
mm/h
press.,
hPa
HPBL,
m
22 april, thu
thu2200:00+7ssw348028 0.0 101864
03:00+7sw35835 0.1 1019101
06:00+6sw36895 0.0 1020118
09:00+11sw35642 0.0 1021667
12:00+15wsw45455 0.0 10211736
15:00+17wsw353986 0.0 10202415
18:00+13ssw3762100 0.0 1021187
21:00+12s3562100 0.0 1022104
23 april, fri
fri2300:00+11ssw3465100 0.0 102196
03:00+10ssw2367100 0.0 102152
06:00+9s237399 0.0 102163
09:00+14s456043 0.0 1021570
12:00+16ssw564489 0.8 10192270
15:00+16ssw4751100 0.8 10181601
18:00+15s4856100 0.0 1016397
21:00+13s6135870 0.0 1016499
24 april, sat
sat2400:00+10sw51172100 0.3 1015446
03:00+9ssw51084100 0.7 1014418
06:00+6nw688996 0.2 1013417
09:00+7wnw5777100 0.7 1015896
12:00+11w795092 0.3 10141891
15:00+12w8103896 0.3 10142572
18:00+9w6861100 0.1 10141003
21:00+5wsw698425 1.4 1015691
25 april, sun
sun2500:00+5w598646 1.1 1016701
03:00+3w510900 1.1 1017311
06:00+2w49915 0.0 1019343
09:00+7w58565 0.0 10191201
12:00+10w6742100 0.1 10192386
15:00+11w5734100 0.1 10182554
18:00+10w4643100 0.0 1018927
21:00+6sw3556100 0.0 101881
26 april, mon
mon2600:00+4w346729 0.0 101862
03:00+3w4891100 0.0 1018393
06:00+4wsw3693100 1.2 1018454
09:00+7w676663 1.5 10181284
12:00+9w784284 0.3 10182278
15:00+10w6938100 0.3 10172788
18:00+9w785029 0.0 10171600
21:00+5wsw366987 0.0 1018127